Location: Unspecified
(0.0000°N, 0.0000°E)
Time: 21:33:26
(UTC+00:00)

Hubble Space Telescope - Pass Details

Date: 21 January 2020
Orbit: 536 x 540 km, 28.5° (Epoch: 24 February)

Event Time Altitude Azimuth Distance (km) Brightness Sun altitude
Rises 18:57:15 0° 288° (WNW) 2,672 5.2 -10.8°
Reaches altitude 10° 18:59:36 10° 281° (W) 1,782 4.4 -11.4°
Maximum altitude 19:03:30 41° 210° (SSW) 782 2.0 -12.3°
Drops below altitude 10° 19:07:25 10° 139° (SE) 1,784 3.2 -13.2°
Enters shadow 19:09:32 - 132° (SE) 2,585 4.0 -13.7°
